Flag for Germany Weather past 2 weeks in Bernau bei Berlin, Brandenburg, Germany

Now
60 °F

Overcast.


Feels Like: 59 °F
Forecast: 55 / 63 °F
Wind: 7 mph from Southwest

Location: Berlin-Tegel

Current Time: Jul 29, 2015 at 2:42:11 AM

Latest Report: Jul 29, 2015 at 2:00 AM


Visibility: 25 mi

Pressure: 29.72 "Hg

Humidity: 65%

Dew point: 48 °F

Location of Bernau bei BerlinLocation

Historic Weather in Bernau bei Berlin — Graph

°F

Bernau bei Berlin temperature yesterday

Maximum temperature yesterday: 68 °F (at 4:00 PM)
Minimum temperature yesterday: 59 °F (at 2:00 AM)
Average temperature yesterday: 63 °F

Past Weeks' High & Low Weather Summary

 TemperatureHumidityPressure
High90 °F (Jul 17, 6:00 PM)98% (Jul 15, 4:00 AM)30.10 "Hg (Jul 15, 4:00 AM)
Low56 °F (Jul 26, 2:00 AM)30% (Jul 25, 6:00 PM)29.55 "Hg (Jul 27, 5:00 PM)
Average68 °F65%29.87 "Hg
* Reported Jul 14 1:00 AM — Jul 29 1:00 AM, Bernau bei Berlin, Weather by CustomWeather, © 2015

Note: Actual official high and low records may vary slightly from our data, if they occured in-between our weather recording intervals... More about our weather records

Advertising

Bernau bei Berlin weather history for previous 24 hours

 ConditionsComfort  
Time TempWeatherWind HumidityBarometerVisibility
1:00 AM
Wed, Jul 29
61 °FOvercast.7 mph67%29.71 "Hg25 mi
11:00 PM
Tue, Jul 28
61 °FOvercast.5 mph74%29.71 "Hg25 mi
10:00 PM64 °FOvercast.6 mph62%29.69 "Hg19 mi
9:00 PM64 °FOvercast.6 mph61%29.68 "Hg25 mi
8:00 PM65 °FLow clouds.7 mph60%29.67 "Hg25 mi
7:00 PM64 °FOvercast.9 mph63%29.67 "Hg22 mi
6:00 PM68 °FOvercast.9 mph51%29.65 "Hg22 mi
5:00 PM68 °FOvercast.8 mph52%29.64 "Hg22 mi
4:00 PM68 °FPartly sunny.8 mph52%29.65 "Hg22 mi
3:00 PM66 °FOvercast.8 mph57%29.65 "Hg22 mi
2:00 PM65 °FOvercast.8 mph61%29.64 "Hg22 mi
1:00 PM64 °FOvercast.6 mph66%29.64 "Hg22 mi
12:00 PM63 °FSprinkles. Overcast.9 mph64%29.63 "Hg25 mi
11:00 AM64 °FOvercast.10 mph66%29.62 "Hg25 mi
10:00 AM65 °FPartly sunny.9 mph70%29.61 "Hg25 mi
9:00 AM64 °FScattered clouds.9 mph72%29.60 "Hg25 mi
8:00 AM61 °FScattered clouds.8 mph79%29.60 "Hg25 mi
7:00 AM60 °FScattered clouds.6 mph86%29.59 "Hg25 mi
6:00 AM60 °FPartly sunny.6 mph87%29.59 "Hg25 mi
5:00 AM60 °FOvercast.7 mph87%29.58 "Hg25 mi
4:00 AM60 °FPassing clouds.6 mph91%29.59 "Hg28 mi
3:00 AM60 °FPassing clouds.6 mph90%29.59 "Hg28 mi
2:00 AM59 °FPassing clouds.3 mph92%29.59 "Hg28 mi
Weather by CustomWeather, © 2015

See weather overviewHow to use our weather pages